Last 48 Hours

Stanford Met Tower

Hourly Data | America/Los_Angeles
as of 6/12/21 4:01 PM PDT
Date & Time Temp (°F) Heat Index (°F) WindChill (°F) RH (%) Dew Pt (°F) Wind Dir (°) Wind Spd (mph) Wind Gust (mph) Solar Rad (W/m2) Pressure (mb) (mb) NowCast AQI Value (AQI) NowCast AQI Status Latest Rain (In) Daily Rain (In) Daily Min Temp (°F) Daily Max Temp (°F)
6/12/21 - 1600 80.1 81.2 - 53 61.5 NNW | 342 11.1 19.8 803 1,013.4 3 Good 0.00 0.00 55.2 81.4
6/12/21 - 1500 79.8 - - 56 62.9 N | 356 9.1 17.8 898 1,013.6 4 Good 0.00 0.00 55.2 81.4
6/12/21 - 1400 77.9 - - 59 62.2 N | 353 6.9 16.2 938 1,014.2 5 Good 0.00 0.00 55.2 80.3
6/12/21 - 1300 76.0 - - 61 61.8 N | 360 5.1 13.5 929 1,014.9 5 Good 0.00 0.00 55.2 78.4
6/12/21 - 1200 73.2 - - 65 60.9 NNW | 334 4.3 11.1 865 1,015.7 5 Good 0.00 0.00 55.2 75.0
6/12/21 - 1100 69.9 - - 72 60.3 NNW | 345 2.6 8.6 764 1,016.6 6 Good 0.00 0.00 55.2 72.4
6/12/21 - 1000 66.2 - - 78 59.3 WNW | 288 2.3 6.4 479 1,017.7 7 Good 0.00 0.00 55.2 68.0
6/12/21 - 0900 64.2 - - 82 58.7 NNW | 346 1.9 4.7 218 1,018.0 7 Good 0.00 0.00 55.2 65.4
6/12/21 - 0800 62.9 - - 84 57.8 WSW | 256 1.4 4.6 117 1,018.3 10 Good 0.00 0.00 55.2 64.1
6/12/21 - 0700 62.0 - - 83 56.8 SW | 233 0.6 2.7 27 1,018.5 10 Good 0.00 0.00 55.2 62.6
6/12/21 - 0600 61.6 - - 83 56.4 ESE | 111 2.5 5.9 1 1,018.4 10 Good 0.00 0.00 55.2 62.3
6/12/21 - 0500 61.0 - - 79 54.6 SE | 129 2.7 6.5 0 1,018.8 10 Good 0.00 0.00 55.2 61.9
6/12/21 - 0400 59.5 - - 76 52.1 SE | 144 1.3 4.0 0 1,019.2 10 Good 0.00 0.00 55.2 61.0
6/12/21 - 0300 58.0 - - 78 51.2 SSW | 206 3.0 7.3 0 1,019.8 10 Good 0.00 0.00 55.2 59.1
6/12/21 - 0200 55.8 - - 82 50.3 SSW | 208 3.5 8.0 0 1,020.1 10 Good 0.00 0.00 55.2 56.9
6/12/21 - 0100 55.9 - - 82 50.3 S | 191 2.2 5.8 0 1,020.2 10 Good 0.00 0.00 42.6 74.0
6/12/21 - 0000 57.4 - - 83 52.2 SSW | 199 1.1 4.4 0 1,020.5 8 Good 0.00 0.00 42.6 74.0
6/11/21 - 2300 59.2 - - 81 53.3 NW | 325 1.6 4.0 0 1,020.4 7 Good 0.00 0.00 42.6 74.0
6/11/21 - 2200 62.0 - - 69 51.8 NNW | 334 2.2 6.3 0 1,019.7 6 Good 0.00 0.00 42.6 74.0
6/11/21 - 2100 64.3 - - 60 50.2 NNW | 332 4.6 13.0 6 1,019.1 6 Good 0.00 0.00 42.6 74.0
6/11/21 - 2000 67.4 - - 54 50.1 NNW | 330 7.4 15.6 127 1,018.6 6 Good 0.00 0.00 42.6 74.0
6/11/21 - 1900 69.9 - - 47 48.7 NW | 318 10.5 19.3 305 1,018.2 4 Good 0.00 0.00 42.6 74.0
6/11/21 - 1800 72.5 - - 43 48.4 NNW | 334 8.0 17.9 492 1,018.2 4 Good 0.00 0.00 42.6 74.0
6/11/21 - 1700 72.2 - - 42 47.9 NW | 324 11.1 20.5 664 1,018.2 4 Good 0.00 0.00 42.6 74.0
6/11/21 - 1600 72.8 - - 41 48.1 NW | 317 9.6 18.6 805 1,017.9 3 Good 0.00 0.00 42.6 74.0
6/11/21 - 1500 72.8 - - 41 47.8 NNW | 328 9.2 17.9 904 1,018.2 4 Good 0.00 0.00 42.6 74.0
6/11/21 - 1400 71.2 - - 44 48.1 N | 10 9.5 18.7 947 1,018.9 4 Good 0.00 0.00 42.6 72.1
6/11/21 - 1300 68.8 - - 51 49.9 N | 356 7.0 13.7 939 1,019.5 6 Good 0.00 0.00 42.6 70.7
6/11/21 - 1200 68.4 - - 50 48.8 NNE | 31 5.2 11.9 881 1,020.0 5 Good 0.00 0.00 42.6 69.8
6/11/21 - 1100 65.6 - - 49 45.8 NE | 48 3.7 8.7 773 1,020.6 5 Good 0.00 0.00 42.6 68.3
6/11/21 - 1000 61.7 - - 55 45.5 NNW | 336 2.6 8.4 619 1,021.6 5 Good 0.00 0.00 42.6 64.1
6/11/21 - 0900 58.9 - - 62 45.8 N | 7 2.0 7.3 439 1,022.5 6 Good 0.00 0.00 42.6 61.2
6/11/21 - 0800 53.2 - - 67 42.6 S | 183 1.5 5.2 250 1,022.6 8 Good 0.00 0.00 42.6 58.0
6/11/21 - 0700 45.4 - - 77 38.6 SSW | 207 3.6 7.2 80 1,022.9 8 Good 0.00 0.00 42.6 48.8
6/11/21 - 0600 43.5 - 40.6 79 37.5 SSW | 202 4.9 8.1 2 1,022.7 5 Good 0.00 0.00 42.6 47.9
6/11/21 - 0500 44.1 - - 77 37.5 SSW | 212 3.8 7.1 0 1,022.8 5 Good 0.00 0.00 43.0 47.9
6/11/21 - 0400 44.0 - 41.5 77 37.3 SSW | 202 4.6 7.0 0 1,023.1 5 Good 0.00 0.00 43.3 47.9
6/11/21 - 0300 45.1 - 43.0 74 37.3 SSW | 193 4.2 7.4 0 1,023.5 5 Good 0.00 0.00 44.1 47.9
6/11/21 - 0200 46.0 - - 75 38.6 SSW | 193 4.2 7.3 0 1,023.9 6 Good 0.00 0.00 44.4 47.9
6/11/21 - 0100 46.3 - - 80 40.5 SSW | 211 2.8 6.6 0 1,024.0 7 Good 0.00 0.00 42.4 70.2
6/11/21 - 0000 48.7 - - 76 41.4 SSW | 205 3.6 6.9 0 1,024.2 7 Good 0.00 0.00 42.4 70.2
6/10/21 - 2300 49.9 - - 78 43.4 W | 275 2.0 5.3 0 1,024.2 8 Good 0.00 0.00 42.4 70.2
6/10/21 - 2200 54.8 - - 67 43.9 NW | 304 2.3 5.6 0 1,023.6 6 Good 0.00 0.00 42.4 70.2
6/10/21 - 2100 58.5 - - 55 42.2 NW | 320 5.0 13.1 9 1,023.3 5 Good 0.00 0.00 42.4 70.2
6/10/21 - 2000 61.2 - - 47 40.8 NW | 320 8.5 16.0 124 1,023.4 4 Good 0.00 0.00 42.4 70.2
6/10/21 - 1900 63.4 - - 48 43.2 NNW | 332 9.0 17.9 314 1,023.1 5 Good 0.00 0.00 42.4 70.2
6/10/21 - 1800 66.1 - - 43 42.8 NW | 326 8.9 17.0 512 1,023.1 5 Good 0.00 0.00 42.4 70.2
6/10/21 - 1700 67.6 - - 39 41.9 WNW | 285 9.4 18.6 692 1,023.2 4 Good 0.00 0.00 42.4 70.2
6/10/21 - 1600 68.0 - - 43 44.7 NW | 322 10.2 20.6 833 1,023.1 4 Good 0.00 0.00 42.4 70.2
Max 80.1 - 43.0 84 62.9 - 11.1 20.6 947 1,024.2 10 - 0.00 0.00 55.2 81.4
Avg 61.9 - 41.7 64 48.9 - 5.0 10.7 342 1,020.1 6 - 0.00 - - -
Min 43.5 - 40.6 39 37.3 - 0.6 2.7 0 1,013.4 3 - 0.00 0.00 42.4 47.9
Total - - - - - - - - - - - - 0.00 - - -